Theta_e
339 339 339 340 342 342 341 341 342 343 344 345 346 346 347 347 347 347 347 346 345 345 345 343 340 338 338 338 338 340 343 346 346 346 346 347 347 347 347 347 344 342 340 339 338 339 340 340 341 341 341 340 340 340 341 343 343 344 344 344 346 346 345
338 339 339 340 342 342 342 342 342 343 344 345 345 346 346 346 346 347 347 346 345 344 345 343 341 338 338 339 340 340 341 343 345 346 346 347 347 347 346 347 346 343 341 340 339 339 340 340 341 342 341 340 340 340 340 341 341 343 344 344 345 347 346
339 339 339 340 341 342 342 343 343 343 344 345 345 345 346 346 346 346 347 347 346 345 344 343 341 340 340 340 341 342 342 343 344 346 346 347 347 346 346 347 347 346 344 344 343 341 340 340 341 341 341 340 340 340 340 340 340 342 344 345 345 345 346
340 339 339 340 341 341 342 343 343 343 344 345 345 345 345 345 346 346 347 347 346 344 343 343 342 341 341 341 342 343 344 344 345 345 346 346 346 346 346 347 347 347 347 347 346 344 343 342 341 341 341 340 340 340 340 340 339 341 344 344 344 344 345
342 340 340 340 341 342 343 343 343 343 344 344 345 345 345 345 345 347 347 346 345 343 342 343 343 342 342 342 342 343 344 345 345 345 345 345 345 345 347 347 347 347 347 347 348 347 345 344 342 341 341 341 340 340 340 340 340 341 343 343 343 342 343
343 341 341 341 341 342 343 344 343 343 344 344 345 345 345 345 346 347 347 346 344 342 342 343 343 343 342 342 342 342 343 343 344 345 345 345 346 346 346 347 347 346 346 346 347 346 346 345 343 343 343 343 341 340 340 340 340 341 341 342 342 341 341
345 343 342 341 341 342 342 343 343 344 344 344 344 345 345 346 346 347 348 347 345 344 344 343 343 343 342 342 342 342 342 341 341 342 343 344 345 346 347 348 347 347 346 345 345 345 345 345 344 343 344 344 343 341 341 340 340 340 340 341 341 341 341
345 344 343 342 342 342 342 343 343 344 344 344 345 345 345 346 346 347 347 347 347 347 346 345 344 343 342 342 343 343 342 340 341 342 342 342 344 346 348 348 347 347 347 346 345 344 344 345 345 344 344 345 345 344 345 344 342 341 340 341 341 341 341
345 345 344 343 342 342 342 343 343 344 344 345 345 345 345 346 346 347 347 347 348 348 348 348 347 345 343 343 343 343 342 341 341 342 342 342 343 346 347 347 347 347 346 346 345 344 344 345 345 345 345 346 345 346 347 347 346 344 343 342 342 342 342
345 345 345 344 343 343 343 343 343 344 344 345 344 345 345 345 346 347 347 348 348 348 348 348 348 347 344 342 343 343 343 342 342 343 343 342 343 345 346 346 346 346 346 346 346 346 345 346 347 348 348 347 346 345 346 346 346 345 344 343 343 342 342
344 344 345 345 345 344 344 344 344 344 344 345 344 345 345 345 346 347 347 348 347 348 348 348 348 347 344 342 342 343 344 343 343 343 343 343 344 345 345 345 345 345 346 347 347 347 347 347 348 350 349 347 347 347 347 347 345 344 344 343 343 343 343
344 343 344 345 345 345 345 344 344 344 344 344 345 345 345 346 346 346 347 348 347 347 348 348 348 347 344 341 341 342 343 343 343 343 344 344 344 343 343 344 344 345 346 347 347 348 349 349 349 350 349 349 349 349 349 349 347 345 344 343 343 344 344
344 344 344 344 345 345 345 345 345 345 345 345 345 345 345 345 346 346 347 347 347 347 348 348 348 348 346 342 340 340 341 342 342 343 344 345 345 344 343 343 344 344 345 347 348 348 350 350 349 349 349 350 350 350 350 349 348 347 345 344 345 347 348
346 345 345 345 345 345 345 345 345 346 346 345 345 345 346 346 346 346 347 347 347 347 348 348 348 349 348 345 342 340 339 340 341 343 344 345 345 345 344 344 344 344 345 346 347 348 349 349 349 349 350 350 350 350 350 350 349 348 347 347 348 350 351
347 347 347 346 346 346 346 346 345 346 346 346 346 346 346 346 346 347 347 347 347 347 347 348 347 348 349 348 346 343 340 339 340 342 343 344 345 344 344 344 345 344 345 346 346 347 348 350 350 351 351 351 350 350 350 350 350 350 350 350 351 351 351
348 348 348 347 347 347 346 346 346 345 346 346 347 347 347 347 347 347 347 348 348 347 347 348 347 347 348 349 349 347 344 340 340 340 341 342 343 343 343 343 343 343 344 346 347 347 348 350 352 352 352 352 351 351 351 351 350 350 350 351 352 352 351
348 347 348 348 348 348 347 347 346 346 345 345 346 347 347 347 347 347 348 348 348 348 347 347 348 347 348 349 349 349 348 344 341 340 340 341 341 342 342 342 342 342 343 346 347 347 348 351 352 352 352 352 352 352 352 352 351 350 351 351 352 352 352
348 348 349 348 348 348 348 347 346 346 346 345 346 346 347 348 347 348 348 348 348 347 347 348 348 348 348 349 349 350 350 349 345 341 340 340 340 341 341 343 344 344 344 345 347 348 349 351 352 351 352 352 352 352 352 352 352 352 352 352 352 352 353
348 348 348 348 348 348 348 347 345 345 345 345 345 346 346 346 347 348 348 348 349 348 348 348 349 349 350 350 350 349 349 349 348 345 342 341 341 341 341 344 346 346 346 346 347 349 350 351 352 352 352 352 352 352 352 352 352 352 353 352 352 352 352
347 347 348 348 348 348 348 347 345 345 345 346 346 347 347 347 347 348 348 348 349 349 349 349 348 349 350 350 351 352 351 349 346 344 343 343 344 344 344 345 347 347 347 348 348 350 351 351 351 351 350 350 349 349 350 350 350 351 352 352 351 351 351
345 346 347 347 347 347 347 347 346 345 345 344 345 345 346 347 347 348 348 349 349 350 350 351 350 351 350 348 350 351 352 352 349 345 343 346 348 348 348 348 347 347 348 349 350 350 350 350 350 349 348 348 347 348 347 347 348 348 349 350 350 349 349
344 345 345 346 346 347 348 347 347 347 345 344 344 344 345 345 346 347 348 348 349 350 349 350 351 352 351 348 347 347 348 349 350 349 348 348 349 350 350 349 349 348 348 349 350 350 350 349 349 348 347 347 346 346 346 346 346 346 347 348 348 348 347
343 344 344 345 345 346 347 348 348 348 348 347 347 347 346 345 345 345 346 346 347 347 348 350 351 351 351 348 347 348 347 346 348 350 350 350 349 349 350 350 350 350 350 350 349 349 349 349 348 348 347 347 346 346 345 345 345 346 347 347 348 347 347
342 343 344 344 345 345 346 347 348 348 349 349 349 348 347 347 346 345 345 345 346 345 347 349 349 349 349 347 347 348 348 346 346 348 349 350 350 349 349 349 348 348 349 350 350 349 348 349 349 348 347 347 347 346 345 345 344 345 346 347 348 348 348
340 342 342 343 344 345 345 346 347 347 348 349 349 349 349 348 347 346 346 346 346 346 348 348 347 347 347 347 348 349 348 347 347 347 347 349 350 349 350 350 349 347 346 348 349 350 350 349 348 348 348 348 348 347 347 346 345 344 346 347 348 348 347
337 339 340 341 342 343 344 344 344 345 347 348 348 349 349 348 348 348 348 348 348 348 349 349 348 347 347 347 347 348 348 347 347 347 347 348 348 348 349 350 350 349 347 347 348 349 350 350 350 350 350 350 350 349 348 347 346 346 347 347 348 348 347
333 336 338 340 341 342 342 343 343 343 344 345 345 346 347 347 347 346 346 347 347 348 348 348 349 349 349 349 349 348 347 346 347 348 349 349 349 349 348 348 348 350 349 348 347 348 349 350 351 352 352 351 351 351 350 349 348 348 348 348 348 347 347
327 332 337 338 339 340 340 341 341 341 341 342 343 344 345 346 346 345 345 346 346 347 347 347 348 349 349 349 349 348 348 348 349 349 350 350 350 349 348 348 349 350 350 349 348 347 348 350 350 351 351 350 351 351 351 350 349 350 350 350 350 350 349
322 327 333 336 336 337 338 339 339 340 340 340 341 341 342 344 344 344 344 345 344 345 346 346 347 347 347 346 346 346 347 347 348 348 348 349 349 348 348 348 348 349 350 350 348 346 347 348 347 347 347 347 348 349 348 349 349 350 350 350 350 349 349
319 319 326 330 331 331 334 336 337 338 338 338 339 340 340 341 342 341 341 342 341 342 342 343 344 344 343 342 343 344 345 345 345 345 344 345 345 345 345 345 345 345 346 346 345 344 344 344 344 344 345 345 346 345 343 342 343 344 343 344 345 344 344
317 314 316 319 321 321 322 327 331 334 335 336 337 337 337 338 339 339 338 338 339 340 340 340 340 340 340 340 341 341 342 342 342 342 342 342 342 343 344 343 343 343 343 343 342 342 341 341 341 341 341 341 341 339 336 334 333 332 332 333 335 336 336
318 316 313 313 314 314 314 316 320 325 329 332 333 334 334 335 335 334 333 333 334 337 338 338 338 338 338 338 339 339 340 340 340 340 340 340 340 341 341 342 341 341 340 340 340 339 338 337 337 336 336 336 334 332 331 330 329 329 328 327 328 329 329
323 320 317 314 312 312 312 312 313 316 319 322 324 326 327 328 328 328 328 329 330 330 331 333 335 337 335 334 333 332 333 333 332 331 332 334 336 338 339 339 338 337 336 335 335 335 336 336 335 334 334 334 333 332 332 332 332 332 331 330 329 329 329
326 324 322 319 316 313 312 311 312 313 314 314 315 315 315 316 317 318 320 323 323 323 322 325 329 330 330 329 327 326 326 326 325 325 327 330 331 333 335 336 335 334 332 330 328 328 329 331 332 333 333 334 334 333 333 333 333 333 332 332 331 331 331
327 326 325 324 321 316 314 313 314 314 314 314 314 313 312 311 310 310 310 312 313 313 316 322 326 327 327 326 327 327 325 324 325 327 329 330 329 328 329 329 328 328 327 327 326 325 325 326 329 333 334 334 334 333 333 333 334 333 332 332 331 331 330
328 327 327 327 323 317 314 315 316 314 313 314 314 314 313 312 311 310 308 308 307 307 309 314 319 322 322 322 325 327 326 325 326 328 329 330 330 329 329 328 326 326 326 327 328 328 328 328 329 332 333 334 333 333 332 332 332 331 331 330 329 328 326
328 327 327 327 325 319 315 317 317 315 314 315 316 316 317 317 316 315 313 311 310 309 309 310 312 313 312 314 319 323 325 326 327 328 328 328 329 329 329 328 328 327 328 329 329 328 328 328 328 329 330 331 332 332 331 331 330 329 328 326 323 321 317
328 327 327 327 325 320 316 317 319 317 317 317 318 318 319 320 320 320 320 317 315 313 312 313 313 313 311 311 314 318 322 326 327 327 328 328 327 328 328 327 327 328 327 327 326 324 323 322 322 323 323 324 325 326 326 326 325 323 320 317 315 314 311
Wind_Speed
30 31 33 34 34 35 34 34 33 32 30 27 25 23 22 20 19 18 17 17 18 18 18 18 19 20 20 20 20 20 20 19 17 16 15 14 13 12 12 13 14 14 13 13 12 11 10 9 10 12 12 12 11 10 10 10 9 9 9 9 8 7 8
30 32 33 34 35 35 35 35 34 33 31 28 26 24 23 21 19 19 18 18 18 19 20 20 20 21 20 20 20 20 20 19 18 17 16 15 14 13 13 12 13 14 14 13 12 12 11 11 11 12 13 12 11 11 11 11 10 9 9 9 9 8 8
30 33 34 35 36 37 37 36 35 34 32 30 28 26 24 22 19 18 18 18 18 19 20 21 21 21 21 20 20 20 20 19 18 18 17 16 15 14 13 13 13 13 13 13 12 12 11 11 12 13 13 13 12 11 11 11 10 10 10 10 9 8 8
29 33 35 36 37 37 37 37 36 35 33 31 28 26 24 21 19 17 17 18 19 19 20 21 21 21 20 20 20 20 20 19 18 18 17 16 15 15 14 14 13 13 13 13 12 12 12 12 13 13 13 13 12 12 11 11 11 11 10 10 10 9 9
27 31 33 35 37 37 38 37 37 36 34 32 30 27 24 22 20 18 17 18 19 19 19 19 20 21 21 20 20 20 20 19 19 18 17 16 15 15 15 14 14 14 14 13 13 13 13 13 14 14 13 13 13 13 12 12 11 11 11 11 11 10 9
25 28 32 35 37 38 38 38 38 36 34 32 30 28 25 24 21 19 17 17 18 18 18 18 19 21 21 21 21 21 20 20 20 19 18 17 16 17 16 14 14 14 14 14 14 14 14 14 14 14 14 14 14 13 13 12 12 12 12 12 12 11 10
25 27 32 35 37 38 38 38 38 37 35 32 31 29 27 26 23 20 18 17 17 18 18 18 19 20 21 21 21 21 21 21 20 20 19 18 18 18 16 15 14 14 13 14 15 15 15 14 14 15 15 14 14 14 13 13 13 13 13 13 12 11 11
27 26 30 34 36 37 38 38 37 37 35 34 33 31 29 27 25 22 20 18 18 18 18 18 18 19 19 20 21 22 22 21 21 20 20 19 18 17 16 15 15 14 14 14 15 16 15 15 15 15 15 14 14 14 13 13 13 13 13 13 13 12 12
29 26 27 31 34 35 36 37 37 36 36 35 34 32 31 29 27 24 21 20 19 19 18 18 18 18 19 19 20 21 21 22 21 21 20 20 19 18 17 16 15 15 15 15 15 16 16 15 15 15 15 15 14 13 13 14 13 13 13 13 13 13 13
30 28 25 26 29 31 33 34 35 36 36 36 35 34 32 30 28 25 23 22 21 20 18 18 18 18 19 19 19 20 21 22 22 21 21 21 20 19 18 17 16 15 15 15 14 15 15 15 15 14 14 15 14 14 14 14 14 14 14 14 14 14 13
28 29 26 22 23 26 29 32 34 36 36 36 36 35 33 32 29 26 24 23 22 20 19 18 18 18 19 19 19 20 21 22 22 22 22 21 20 19 18 17 16 16 16 15 15 14 15 15 15 15 15 15 14 14 13 13 13 13 14 14 14 14 13
25 28 27 23 22 23 26 30 33 35 36 36 36 35 34 33 30 28 25 24 22 21 21 20 18 18 19 20 20 20 21 21 22 22 22 21 20 19 18 18 17 16 16 16 15 15 15 15 15 16 15 14 14 14 13 13 13 13 13 14 14 13 13
22 25 25 24 22 22 24 27 31 33 35 36 36 36 35 33 31 29 27 25 23 22 22 22 20 19 19 20 20 21 20 21 22 22 22 22 20 19 19 18 18 17 16 16 16 16 15 15 15 16 15 14 13 13 13 13 13 13 13 13 14 13 13
18 20 22 22 22 22 23 26 29 31 34 36 36 36 36 34 33 31 28 25 24 23 23 23 22 21 19 20 20 21 21 20 20 21 22 21 21 20 19 19 19 18 17 17 17 17 16 15 15 15 15 14 14 13 13 14 14 13 12 13 13 14 14
16 17 18 20 20 21 22 24 27 30 32 34 36 36 36 36 35 33 31 28 26 25 24 24 23 22 21 20 20 21 21 21 20 20 21 22 21 20 20 20 19 18 18 18 18 17 16 16 16 15 15 14 14 14 14 15 15 14 12 12 12 13 13
14 15 16 17 18 19 20 20 23 27 30 32 34 35 36 36 35 34 33 31 29 28 27 26 25 23 22 21 20 20 21 22 21 21 21 22 22 21 20 20 19 19 18 19 19 18 17 17 17 16 16 15 15 15 15 16 16 16 14 13 12 13 13
14 15 16 17 17 17 18 20 22 25 27 30 32 33 34 35 35 34 34 33 31 30 29 29 27 25 23 22 20 20 21 22 22 22 21 21 22 22 21 21 20 19 19 19 19 19 18 18 18 18 17 16 16 16 16 16 16 15 15 14 14 14 14
12 15 16 17 17 16 15 17 19 22 25 27 29 31 32 34 34 34 35 34 33 32 31 30 29 28 26 23 21 20 21 22 23 23 23 22 22 23 22 21 20 19 19 19 19 19 19 19 19 18 17 17 17 17 17 17 16 16 16 15 15 16 16
7 10 12 15 16 16 13 11 13 17 20 22 25 27 29 31 32 33 34 34 34 34 33 32 31 31 29 26 23 22 21 21 22 23 23 23 22 22 22 21 20 20 19 20 20 20 20 20 19 19 18 18 18 18 18 18 17 17 18 18 17 18 18
3 6 8 11 14 16 16 12 10 12 14 15 17 20 22 25 28 29 32 33 33 33 33 32 33 32 30 28 26 24 22 21 21 22 22 21 20 19 19 20 20 20 20 20 20 21 22 22 21 20 19 18 18 18 19 19 19 19 19 19 19 19 19
3 0 3 6 9 12 15 15 13 13 13 13 13 15 17 19 21 23 26 28 30 32 31 31 32 31 30 28 27 25 23 22 20 20 21 20 19 18 19 19 20 20 21 21 21 22 23 23 23 22 20 19 18 18 19 20 20 20 19 19 20 20 20
8 5 2 3 5 8 10 11 13 15 16 15 15 17 20 22 22 22 23 23 25 26 26 29 31 30 28 27 27 25 24 24 24 23 22 21 20 20 21 21 21 21 22 23 23 23 23 23 23 23 22 22 21 20 20 21 21 22 22 21 21 21 21
10 7 5 3 4 6 7 7 8 10 12 13 15 18 21 24 25 26 27 27 25 23 22 24 26 26 26 28 28 26 25 26 28 28 26 25 24 23 22 23 24 25 25 26 26 25 25 24 24 24 23 23 23 22 22 21 22 23 24 24 24 24 24
10 9 8 6 4 3 4 5 6 7 8 9 12 14 17 20 22 24 27 27 24 22 21 21 22 24 26 28 28 27 26 26 28 29 28 27 26 24 24 24 25 26 28 28 28 28 27 27 26 25 25 23 22 22 22 22 22 23 25 26 27 27 27
11 11 10 9 7 5 2 3 5 7 9 8 9 10 11 14 17 19 22 22 21 21 19 18 21 23 23 23 24 25 23 21 23 25 26 26 25 25 26 26 26 27 29 30 29 28 28 28 28 27 27 25 24 24 24 25 25 25 26 27 28 29 29
15 15 14 12 10 8 5 4 3 4 9 10 10 10 11 12 11 12 15 17 17 17 14 14 18 19 17 18 20 21 19 18 20 22 23 25 25 24 24 24 25 26 28 29 30 29 28 27 28 28 27 26 26 25 26 26 27 27 27 27 28 29 29
18 17 16 14 11 9 7 8 9 6 3 2 3 5 7 10 9 8 9 10 10 10 10 11 12 11 10 12 15 17 18 19 20 22 25 26 26 25 24 24 25 25 25 27 30 30 29 28 27 27 26 26 26 27 27 27 27 28 28 28 28 28 28
18 18 17 15 13 13 12 12 14 15 14 14 11 8 4 3 7 7 7 7 6 5 5 5 4 3 4 6 9 11 13 14 16 20 22 23 23 23 22 22 23 24 24 25 26 28 28 28 27 25 24 24 26 27 28 28 28 28 29 29 29 30 30
18 18 17 18 17 17 16 16 18 19 19 18 16 14 11 8 8 9 9 9 8 7 4 3 1 1 2 3 4 6 9 11 13 14 14 15 15 15 16 17 18 20 22 23 23 23 23 23 22 20 20 21 24 25 25 24 23 24 25 26 27 27 28
18 18 17 17 18 17 18 19 20 21 20 18 17 16 14 13 13 14 15 15 14 11 9 7 5 4 4 3 2 3 5 7 7 6 6 7 8 10 12 12 13 13 15 17 17 16 14 13 12 12 13 16 18 17 14 12 12 13 13 14 16 17 17
17 17 16 16 16 16 17 19 19 20 20 18 17 17 17 16 16 17 20 19 17 14 14 13 11 10 9 8 5 3 1 2 2 2 2 2 3 2 3 5 7 8 8 8 6 4 3 5 5 5 7 8 8 6 3 2 2 3 2 2 5 6 6
16 16 15 15 15 15 15 16 17 17 17 17 15 15 15 15 15 17 18 17 16 15 14 13 12 12 12 12 10 9 7 6 7 7 7 8 9 8 7 6 7 7 6 5 5 5 5 5 4 3 3 3 2 2 4 7 9 9 9 7 5 5 5
16 17 16 16 15 15 14 14 15 15 15 14 13 12 11 11 12 13 12 12 13 13 11 10 9 10 11 11 10 10 10 10 10 10 9 9 10 10 10 10 10 10 11 11 9 8 8 7 8 7 7 6 6 5 6 7 9 9 9 9 9 8 8
14 15 16 16 16 15 14 14 14 14 14 14 13 11 10 10 10 10 9 8 8 8 7 7 7 6 7 7 7 7 8 9 9 9 8 9 9 9 10 10 9 9 9 10 10 9 8 7 7 6 5 4 4 4 4 5 6 7 8 8 9 9 10
12 13 14 14 15 15 15 16 16 15 15 15 14 13 12 12 11 10 9 8 7 7 7 7 7 6 5 4 4 5 6 7 8 8 9 9 9 9 9 9 8 8 8 9 9 8 7 6 5 4 3 3 2 3 3 4 5 6 7 9 10 10 10
9 10 11 12 13 14 15 16 16 16 16 16 15 16 16 16 16 15 13 11 9 8 8 7 6 5 4 3 4 5 6 6 6 6 7 8 8 9 9 9 8 8 8 8 8 8 7 6 5 4 3 2 2 2 3 4 5 6 7 8 10 11 12
6 7 8 10 11 12 14 15 16 16 16 17 16 17 17 18 17 17 16 14 13 11 10 9 7 5 4 3 3 3 5 5 5 5 6 7 8 9 9 9 8 8 8 7 7 7 6 5 4 3 2 1 0 2 4 5 6 7 9 10 11 12 13
6 6 7 8 9 10 11 12 13 13 14 14 14 14 14 14 14 14 14 13 13 12 11 11 10 9 7 6 4 3 4 4 4 5 5 6 7 7 7 7 7 7 7 7 7 7 7 6 5 3 2 1 1 3 5 6 7 8 9 9 9 9 9
Wind_Direction
202 203 204 204 205 207 209 211 209 209 209 209 210 209 209 209 208 208 209 209 210 209 211 213 214 212 210 210 211 212 212 211 211 212 212 214 221 225 223 223 225 223 220 221 222 220 220 223 230 232 230 227 224 224 227 230 230 229 236 244 248 252 254
201 203 203 203 205 208 211 212 211 210 210 210 211 211 211 211 211 211 211 211 212 213 214 216 217 215 214 213 214 216 216 217 217 217 216 217 223 228 225 226 228 227 225 226 226 224 222 222 226 230 230 229 228 227 229 234 236 236 240 244 245 248 250
201 202 203 204 206 209 211 212 212 212 212 211 212 213 214 215 215 215 214 213 213 215 216 218 219 218 217 217 217 217 217 218 219 220 220 220 224 227 227 227 229 227 225 225 226 225 222 221 224 228 229 230 230 230 231 234 237 240 245 246 243 243 245
201 202 203 205 207 209 211 212 213 213 213 214 214 215 215 216 218 218 217 215 214 217 219 219 220 219 219 220 221 220 219 218 217 220 222 223 226 228 228 228 228 227 224 223 225 226 225 223 225 228 231 233 234 233 232 232 234 239 244 246 243 241 243
201 201 202 202 204 207 210 212 214 215 215 216 216 218 218 218 219 219 217 215 215 220 224 223 223 222 220 220 222 223 223 222 221 221 221 223 227 229 226 226 229 229 227 226 227 228 228 226 226 229 232 235 237 236 232 230 231 233 236 239 241 244 246
196 199 200 201 203 207 209 212 215 216 217 218 218 219 219 218 219 218 215 212 214 218 222 224 225 224 223 221 221 223 226 227 226 225 224 225 229 229 227 226 228 229 229 228 228 229 229 228 228 229 231 234 237 237 234 231 230 230 232 235 239 243 245
192 197 199 201 203 207 210 212 215 217 219 220 220 220 219 219 219 218 214 211 213 214 216 219 221 224 225 224 222 223 225 227 227 228 228 228 230 230 227 227 229 230 232 231 230 230 230 231 231 231 232 233 235 237 238 236 233 233 236 239 242 244 244
190 193 198 202 205 207 210 212 215 218 219 220 221 221 220 220 219 217 214 212 215 217 216 218 220 222 225 225 225 225 226 227 228 229 230 229 230 229 228 230 231 232 235 235 232 232 233 234 233 233 234 234 234 236 237 238 237 236 239 243 246 249 248
192 191 195 201 205 208 210 213 216 218 219 220 222 222 222 221 220 219 216 214 218 222 222 222 222 223 224 225 226 227 227 228 228 229 230 229 229 229 228 230 231 232 236 236 234 234 235 235 234 234 236 236 236 235 234 236 238 239 241 244 248 252 251
194 193 192 195 202 208 211 214 216 218 220 221 222 223 223 222 221 221 219 217 219 225 227 227 227 225 225 226 226 228 229 229 229 229 230 230 229 229 229 229 230 232 233 234 235 234 234 235 234 235 237 238 237 236 235 237 240 242 244 245 248 252 252
195 196 193 192 198 205 210 213 216 218 220 222 223 224 224 224 223 223 223 221 220 224 228 229 229 227 227 227 227 227 229 229 229 229 229 229 230 229 229 229 230 230 231 234 234 232 233 234 234 235 237 238 237 237 237 240 242 244 244 245 248 250 251
194 197 199 201 202 205 210 214 217 219 221 222 223 224 225 225 225 225 226 225 223 224 227 228 229 228 228 229 228 228 230 230 230 229 229 229 229 229 229 230 230 230 231 233 233 232 234 234 234 235 239 240 239 237 237 240 243 244 244 244 245 246 246
186 193 201 208 209 210 212 214 217 220 222 223 225 226 227 228 227 227 229 229 227 226 227 228 228 228 228 230 230 231 231 232 231 230 229 230 230 230 230 230 232 233 233 234 235 233 234 235 235 236 238 240 240 240 240 241 242 242 241 240 240 240 240
176 185 196 205 208 210 211 213 216 219 222 224 225 227 228 229 230 229 230 232 231 228 228 229 229 230 231 231 232 233 234 235 234 232 231 231 232 232 233 232 233 236 237 237 236 234 234 235 235 235 238 240 240 241 243 241 238 236 235 235 237 239 240
168 178 191 202 206 210 211 212 215 218 221 223 225 227 228 229 230 231 231 233 234 232 231 230 230 232 233 233 235 236 236 237 237 234 232 233 233 233 233 234 235 236 237 237 236 236 235 235 234 234 238 240 240 241 240 237 234 232 232 235 239 243 246
176 183 195 205 210 214 215 216 217 219 220 222 224 226 227 229 231 232 232 234 235 236 235 232 232 233 235 236 239 240 238 237 237 236 234 234 234 234 234 235 236 235 234 234 235 236 235 234 234 235 238 241 241 241 240 238 237 235 235 239 244 248 252
190 197 205 210 214 216 219 220 219 219 219 220 222 225 227 229 231 232 233 234 236 237 237 235 233 234 236 237 240 243 242 239 237 236 236 236 236 237 237 238 237 236 234 233 234 236 236 235 235 237 239 242 244 243 243 243 243 243 242 244 249 253 256
193 203 207 209 213 214 216 220 220 217 216 217 220 223 225 228 230 231 233 234 235 237 238 238 236 236 238 239 239 242 243 241 239 238 239 239 238 238 239 239 238 236 234 234 234 234 235 236 238 239 241 245 248 248 249 250 250 251 250 251 254 258 260
199 212 218 221 223 221 216 215 213 212 213 215 218 222 225 227 229 230 232 232 233 234 236 237 236 236 238 238 238 240 242 240 237 236 239 240 239 238 237 237 238 235 233 232 232 231 233 236 239 241 244 249 252 253 254 256 257 257 257 258 259 260 262
183 212 222 228 233 232 230 224 209 202 204 207 212 216 220 224 227 229 231 231 232 234 235 237 238 237 237 238 238 240 244 244 237 233 233 233 233 234 235 237 238 236 232 231 230 230 232 235 239 243 248 253 257 258 258 260 261 261 261 262 261 261 261
41 188 218 227 235 240 240 240 234 224 218 213 214 219 223 224 225 226 229 231 233 234 235 238 240 239 237 239 240 239 244 250 246 235 226 223 226 233 238 242 242 238 233 231 231 233 237 240 242 245 249 253 256 258 259 260 261 261 260 260 260 260 260
33 24 345 273 257 255 253 252 252 249 245 240 238 240 240 239 235 230 229 229 230 232 234 238 243 242 238 241 244 241 241 250 256 250 236 227 227 232 237 242 245 244 240 237 237 239 241 243 245 247 249 251 253 256 259 260 261 260 258 257 257 258 259
45 37 22 355 290 272 269 268 265 261 260 258 254 251 247 245 242 238 236 236 236 236 235 234 239 243 241 243 248 247 243 247 255 258 252 242 237 236 238 242 244 246 248 246 243 244 245 247 249 251 252 252 253 256 261 264 264 262 259 257 256 258 260
47 47 38 29 4 311 284 274 261 245 242 248 248 245 243 243 243 240 238 238 238 241 242 238 242 247 243 243 249 252 249 249 253 259 260 255 250 246 247 249 250 252 255 255 251 249 249 250 251 252 254 255 255 258 261 263 264 263 261 259 258 259 261
46 50 50 45 40 31 359 305 271 226 210 213 221 221 222 228 234 235 236 236 237 241 244 242 242 242 240 241 247 252 255 256 255 257 259 259 257 256 256 257 256 255 257 259 258 254 252 252 254 255 255 255 256 256 258 258 258 258 259 258 258 259 261
54 58 60 61 58 55 47 17 354 236 221 225 228 225 222 219 217 218 223 226 229 231 229 223 223 226 231 239 247 253 260 263 262 259 258 258 259 259 260 261 260 259 258 258 259 258 255 252 253 253 252 252 253 253 255 256 255 255 256 256 255 256 257
58 61 63 64 58 53 54 54 58 76 112 155 199 215 223 223 219 214 212 212 216 218 213 209 213 215 223 239 250 258 262 263 263 259 255 254 256 257 259 262 263 263 263 260 259 258 258 256 254 253 250 249 250 252 254 254 254 254 254 254 254 253 252
59 62 64 65 62 59 64 72 78 82 78 72 73 75 80 182 195 190 186 179 172 175 175 177 190 207 235 258 266 266 263 261 258 255 252 251 252 255 259 262 260 258 258 257 256 258 259 259 258 259 258 255 254 255 255 254 252 252 252 252 253 254 255
60 64 66 68 69 70 76 82 84 83 78 73 73 72 71 88 115 120 119 114 106 100 102 105 95 319 293 289 277 260 255 254 252 252 256 256 255 255 259 261 260 256 251 249 251 257 262 263 263 265 264 257 252 251 249 246 245 248 251 254 257 260 263
64 67 68 69 69 71 76 81 82 80 76 71 70 72 76 82 90 94 93 89 85 84 85 88 87 81 82 90 137 208 237 251 255 262 272 274 270 267 267 266 264 257 250 248 253 263 268 267 264 261 255 247 244 243 244 243 243 246 252 257 262 266 268
65 68 71 72 71 70 72 77 81 82 81 77 73 72 75 81 86 88 86 83 81 79 76 76 76 75 77 82 90 100 92 313 321 328 337 356 355 319 275 249 230 223 226 235 245 251 237 225 227 235 240 242 247 260 289 344 0 349 341 297 269 268 268
67 67 68 71 72 69 70 74 78 82 84 84 80 77 76 80 83 84 83 84 84 82 76 72 71 73 78 81 83 81 76 65 60 63 70 70 69 77 92 118 145 149 139 126 116 108 117 130 128 124 136 133 103 59 47 56 58 53 46 42 37 30 20
70 69 68 68 67 67 70 74 76 81 84 85 84 82 81 83 83 83 84 88 90 88 84 80 77 77 79 79 76 73 71 67 60 57 63 71 75 82 92 99 103 104 102 99 94 88 88 89 89 91 97 99 93 84 72 64 58 51 45 37 31 27 21
73 70 68 67 65 66 71 75 76 76 78 78 77 76 75 76 78 79 79 81 83 82 82 90 93 90 84 78 68 58 54 53 50 50 59 71 80 90 100 101 97 95 92 85 78 75 76 78 77 77 81 83 78 70 61 51 37 28 22 13 5 2 359
79 73 68 64 62 64 67 70 71 72 72 71 67 62 59 60 63 66 67 65 62 60 66 84 102 107 96 82 67 56 50 52 57 62 68 74 77 80 86 88 84 78 72 67 65 64 68 78 84 82 74 63 44 26 24 22 8 359 353 346 341 341 339
84 80 73 63 57 60 64 66 68 72 75 75 71 65 62 59 58 59 58 57 55 54 58 71 92 106 103 86 70 64 59 56 57 59 66 73 70 62 60 61 62 63 62 60 60 60 60 68 79 83 75 53 25 348 335 334 328 325 326 324 321 318 315
94 94 83 69 60 61 65 66 66 72 78 80 76 70 65 61 59 58 56 54 54 53 52 54 60 68 74 71 64 59 55 54 52 52 59 64 58 49 46 47 51 54 52 47 44 39 35 37 48 61 75 75 12 296 297 302 304 306 307 306 305 305 304
109 108 94 82 72 69 71 68 64 67 74 77 74 68 61 58 55 53 52 52 51 50 49 49 49 52 58 65 66 57 48 45 43 40 42 44 40 34 32 32 32 31 29 26 23 18 16 18 26 37 46 6 292 289 291 293 298 303 306 307 308 309 311